Location: *
(43.7000°S, 168.7000°W)
Time: 11:47:20
(UTC+00:00)

USA 267 - Pass Details

Date: 07 July 2020
Orbit: 1102 x 1106 km, 123.0° (Epoch: 08 August)

Event Time Altitude Azimuth Distance (km) Brightness Sun altitude
Rises 17:32:26 0° 126° (SE) 3,953 6.7 -13.2°
Reaches altitude 10° 17:35:11 10° 135° (SE) 2,994 5.9 -12.7°
Maximum altitude 17:40:54 32° 194° (SSW) 1,806 4.1 -11.7°
Enters shadow 17:45:47 13° 250° (WSW) 2,730 4.6 -10.9°
